Charlottesville, VA

9:54 AM EDT on May 21, 2018 (GMT -0400)
Charlottesville-Albemarle

Weather History for KCHO - May, 2012

Change the Weather History Date:

Wednesday, May 2, 2012

  Actual Average Record
Temperature  
Mean Temperature 78 °F 60 °F  
Max Temperature 90 °F 72 °F 91 °F (1986)
Min Temperature 66 °F 47 °F 36 °F (1978)
Degree Days  
Heating Degree Days 0 6  
Month to date heating degree days 0 13  
Since 1 July heating degree days 3302 4325  
Cooling Degree Days 13 1  
Month to date cooling degree days 23 2  
Year to date cooling degree days 63 23  
Growing Degree Days 28 (Base 50)    
Moisture  
Dew Point 63 °F    
Average Humidity 60    
Maximum Humidity 79    
Minimum Humidity 41    
Precipitation  
Precipitation 0.15 in 0.10 in 0.86 in (2004)
Month to date precipitation 0.28 0.20  
Year to date precipitation 10.29 12.69  
Sea Level Pressure  
Sea Level Pressure 30.03 in    
Wind  
Wind Speed 4 mph (ESE)    
Max Wind Speed 9 mph    
Max Gust Speed 14 mph    
Visibility 10 miles    
Events Rain    
T = Trace of Precipitation, MM = Missing Value Source: NWS Daily Summary

Daily Weather History Graph

Daily Weather History Graph

Search for Another Location

Airport or City:

Astronomy

May. 02, 2012 Rise Set
Actual Time 6:15 AM EDT 8:06 PM EDT
Civil Twilight 5:47 AM EDT 8:34 PM EDT
Nautical Twilight 5:12 AM EDT 9:09 PM EDT
Astronomical Twilight 4:35 AM EDT 9:46 PM EDT
Moon 4:19 PM EDT (5/2) 3:41 AM EDT (5/2)
Length of Visible Light 14h 47m
Length of Day
13h 50m
Waxing Gibbous, 83% of the Moon is Illuminated
May 2
Waxing Gibbous
May 5
Full
May 12
Last Quarter
May 20
New
May 28
First Quarter

Hourly Weather History & Observations

Time (EDT) Temp. Heat Index Dew Point Humidity Pressure Visibility Wind Dir Wind Speed Gust Speed Precip Events Conditions
12:53 AM 72.0 °F - 60.1 °F 66% 29.99 in 10.0 mi Calm Calm - N/A   Clear
1:53 AM 72.0 °F - 59.0 °F 64% 29.98 in 10.0 mi Calm Calm - N/A   Clear
2:53 AM 70.0 °F - 61.0 °F 73% 29.96 in 10.0 mi SSW 5.8 mph - N/A   Partly Cloudy
3:53 AM 69.1 °F - 60.1 °F 73% 29.97 in 10.0 mi Calm Calm - N/A   Scattered Clouds
4:53 AM 68.0 °F - 61.0 °F 78% 29.99 in 10.0 mi North 3.5 mph - 0.13 in Rain Light Rain
5:53 AM 68.0 °F - 61.0 °F 78% 30.03 in 8.0 mi Calm Calm - 0.02 in Rain Light Rain
6:53 AM 69.8 °F - 60.8 °F 73% 30.05 in 10.0 mi WSW 4.6 mph - N/A   Clear
7:53 AM 69.1 °F - 61.0 °F 75% 30.04 in 10.0 mi Calm Calm - N/A   Clear
8:53 AM 73.0 °F - 64.0 °F 73% 30.07 in 10.0 mi Variable 3.5 mph - N/A   Partly Cloudy
9:53 AM 73.9 °F - 64.0 °F 71% 30.07 in 10.0 mi Calm Calm - 0.00 in   Clear
10:53 AM 80.1 °F 81.2 °F 62.1 °F 54% 30.06 in 10.0 mi Calm Calm - N/A   Clear
11:53 AM 84.0 °F 84.4 °F 61.0 °F 46% 30.06 in 10.0 mi Variable 3.5 mph - N/A   Clear
12:53 PM 84.9 °F 85.0 °F 61.0 °F 44% 30.05 in 10.0 mi South 3.5 mph - N/A   Clear
1:53 PM 86.0 °F 86.3 °F 62.1 °F 44% 30.04 in 10.0 mi South 5.8 mph - N/A   Clear
2:53 PM 88.0 °F 88.7 °F 63.0 °F 43% 30.02 in 10.0 mi West 5.8 mph - N/A   Scattered Clouds
3:53 PM 89.1 °F 89.3 °F 62.1 °F 40% 30.01 in 10.0 mi West 3.5 mph - N/A   Partly Cloudy
4:53 PM 89.1 °F 90.0 °F 63.0 °F 42% 30.00 in 10.0 mi ESE 5.8 mph - N/A   Clear
5:53 PM 89.1 °F 90.3 °F 64.0 °F 43% 30.01 in 10.0 mi East 5.8 mph - N/A   Clear
6:53 PM 88.0 °F 89.6 °F 64.9 °F 46% 30.01 in 10.0 mi SE 5.8 mph - N/A   Partly Cloudy
7:53 PM 82.0 °F 84.5 °F 66.9 °F 60% 30.02 in 10.0 mi Calm Calm - N/A   Clear
8:53 PM 79.0 °F - 66.9 °F 66% 30.04 in 10.0 mi NNE 3.5 mph - N/A   Clear
9:53 PM 75.0 °F - 66.9 °F 76% 30.05 in 10.0 mi NE 5.8 mph - N/A   Clear
10:53 PM 75.0 °F - 66.9 °F 76% 30.06 in 10.0 mi ENE 6.9 mph - N/A   Clear
11:53 PM 72.0 °F - 64.9 °F 78% 30.06 in 9.0 mi NE 5.8 mph - N/A   Clear